KUIPER-00135

导读

KUIPER-00163是美国亚马逊柯伊伯(Project Kuiper)卫星互联网星座计划中的一颗卫星,于2025年9月25日成功发射。该项目旨在通过近地轨道卫星群,为全球偏远地区、海洋等网络覆盖薄弱区域提供高速低延迟的互联网接入服务,KUIPER-00163将助力项目完成星座组网,推动全球宽带覆盖目标的实现。

Basic Information
目录编号:
65777
目录名称:
KUIPER-00163
国际标识:
2025-217R
轨道中心:
EARTH
卫星名称:
KUIPER-00163
卫星全名:
KUIPER-00135
卫星状态:
已陨落 最后检测时间 2026-07-27
发射日期:
2025-09-25 UTC
国别 :
美国 (US)
星等 :
--
This satellite is enrolled in the Space Conjunction Data Service (SCDS) and the current flight risk assessment level is: No High Risk
Orbit Information
数据来源 国际轨道数据
星历时间: 2026-07-27T02:08:57+0800
轨道信息已过期47天
半长轴: 6557.138km
偏心率: 0.0009117
轨道倾角: 51.857°
近地点辐角 275.377°
升交点赤经 55.130°
平近点角 84.622°
近地点: 173.022km
远地点: 184.98km
周期: 88.071分钟
每日圈数: 16.350511
Detailed Information
使用方式:
暂无
Miss Distance Evolution Trend with All Objects
Collision Probability Evolution Trend with All Objects